CW5377 Weather Reports


Display with metric or nautical units.
time (UTC)temp
F
wind
direction
speed
MPH
gust
MPH
rain 1hr
in
rain 24hr
in
rain mn
in
humidity
%
barometer
mb
20200221010556 33 96 0.0 1.0 0.00 0.00 0.00 92 1026.1
20200221010055 33 96 0.0 1.0 0.00 0.00 0.00 92 1026.3
20200221005553 33 96 0.0 0.0 0.00 0.00 0.00 93 1026.3
20200221005054 33 96 0.0 0.0 0.00 0.00 0.00 93 1026.3
20200221004551 33 96 0.0 1.0 0.00 0.00 0.00 93 1026.2
20200221004046 33 96 0.0 1.0 0.00 0.00 0.00 92 1026.2
20200221003544 33 96 0.0 0.0 0.00 0.00 0.00 92 1026.4
20200221003040 33 96 0.0 0.0 0.00 0.00 0.00 92 1026.3
20200221002538 33 96 0.0 0.0 0.00 0.00 0.00 92 1026.5
20200221002039 33 96 0.0 0.0 0.00 0.00 0.00 92 1026.6
20200221001533 33 96 0.0 0.0 0.00 0.00 0.00 92 1026.6
20200221001031 33 96 0.0 0.0 0.00 0.00 0.00 92 1026.6
20200221000537 33 96 0.0 0.0 0.00 0.00 0.00 92 1026.6
20200221000027 33 96 0.0 0.0 0.00 0.00 0.00 92 1026.6
20200220235527 33 96 0.0 0.0 0.00 0.00 0.00 92 1026.6
20200220235021 33 96 0.0 0.0 0.00 0.00 0.00 92 1026.5
20200220234519 33 96 0.0 0.0 0.00 0.00 0.00 92 1026.5
20200220234016 33 96 0.0 0.0 0.00 0.00 0.00 92 1026.3
20200220233515 33 96 0.0 0.0 0.00 0.00 0.00 92 1026.2
20200220233015 33 96 0.0 0.0 0.00 0.00 0.00 92 1026.1
20200220232508 33 96 0.0 0.0 0.00 0.00 0.00 92 1026.2
20200220232007 33 96 0.0 0.0 0.00 0.00 0.00 92 1026.2
20200220231507 33 96 0.0 0.0 0.00 0.00 0.00 92 1026.4
20200220231006 33 96 0.0 0.0 0.00 0.00 0.00 92 1026.3
20200220230504 33 96 0.0 0.0 0.00 0.00 0.00 92 1026.4
20200220230005 33 96 0.0 0.0 0.00 0.00 0.00 92 1026.4
20200220225503 33 96 0.0 0.0 0.00 0.00 0.00 92 1026.3
20200220225004 33 96 0.0 0.0 0.00 0.00 0.00 91 1026.2
20200220224459 33 96 0.0 0.0 0.00 0.00 0.00 91 1026.1
20200220223958 33 96 0.0 0.0 0.00 0.00 0.00 91 1026.0
20200220223458 33 96 0.0 0.0 0.00 0.00 0.00 91 1026.2
20200220222958 33 96 0.0 0.0 0.00 0.00 0.00 91 1026.2
20200220222459 33 96 0.0 0.0 0.00 0.00 0.00 91 1026.2
20200220221956 33 96 0.0 0.0 0.00 0.00 0.00 91 1026.3
20200220221449 33 96 0.0 0.0 0.00 0.00 0.00 91 1026.5
20200220220947 33 95 0.0 0.0 0.00 0.00 0.00 91 1026.4
20200220220445 33 94 0.0 0.0 0.00 0.00 0.00 91 1026.5
20200220215946 33 94 0.0 0.0 0.00 0.00 0.00 91 1026.3
20200220215445 33 94 0.0 0.0 0.00 0.00 0.00 91 1026.3
20200220214945 33 94 0.0 0.0 0.00 0.00 0.00 91 1026.4
20200220214447 33 94 0.0 0.0 0.00 0.00 0.00 90 1026.4
20200220213945 33 94 0.0 0.0 0.00 0.00 0.00 90 1026.5
20200220213445 33 94 0.0 0.0 0.00 0.00 0.00 90 1026.6
20200220212946 33 94 0.0 0.0 0.00 0.00 0.00 90 1026.6
20200220212449 33 94 0.0 0.0 0.00 0.00 0.00 90 1026.5
20200220211939 33 94 0.0 0.0 0.00 0.00 0.00 90 1026.6
20200220211438 33 50 0.0 0.0 0.00 0.00 0.00 90 1026.7
20200220210937 33 50 0.0 0.0 0.00 0.00 0.00 89 1026.4
20200220210434 33 50 0.0 0.0 0.00 0.00 0.00 89 1026.7
20200220205937 33 50 0.0 0.0 0.00 0.00 0.00 89 1026.7
20200220205424 33 118 0.0 0.0 0.00 0.00 0.00 89 1026.7
20200220204924 34 118 0.0 0.0 0.00 0.00 0.00 88 1026.6
20200220204425 34 118 0.0 0.0 0.00 0.00 0.00 88 1026.6
20200220203922 34 118 0.0 0.0 0.00 0.00 0.00 88 1026.6
20200220203422 34 118 0.0 1.0 0.00 0.00 0.00 88 1026.5
20200220202915 34 80 0.0 1.0 0.00 0.00 0.00 87 1026.7
20200220202414 34 32 0.0 0.0 0.00 0.00 0.00 86 1026.6
20200220201912 34 32 0.0 0.0 0.00 0.00 0.00 86 1026.8
20200220201413 35 32 0.0 0.0 0.00 0.00 0.00 86 1026.8
20200220200910 35 38 0.0 0.0 0.00 0.00 0.00 85 1026.9
20200220200403 35 119 0.0 0.0 0.00 0.00 0.00 85 1026.7
20200220195902 35 119 0.0 0.0 0.00 0.00 0.00 84 1026.6
20200220195400 36 119 0.0 2.0 0.00 0.00 0.00 83 1026.6
20200220194857 36 119 0.0 3.0 0.00 0.00 0.00 83 1026.7
20200220194358 37 119 0.0 3.0 0.00 0.00 0.00 82 1026.6
20200220193848 37 113 0.0 3.0 0.00 0.00 0.00 81 1026.6
20200220193347 38 125 0.0 3.0 0.00 0.00 0.00 80 1026.7
20200220192849 38 114 0.0 2.0 0.00 0.00 0.00 79 1026.5
20200220192348 38 114 0.0 4.0 0.00 0.00 0.00 77 1026.5
20200220191847 39 117 0.0 4.0 0.00 0.00 0.00 77 1026.5
20200220191348 39 126 0.0 3.0 0.00 0.00 0.00 75 1026.5
20200220190842 40 355 0.0 5.0 0.00 0.00 0.00 73 1026.5
20200220190341 40 128 0.0 7.0 0.00 0.00 0.00 72 1026.6
20200220185841 40 120 0.0 7.0 0.00 0.00 0.00 70 1026.6
20200220185344 41 35 0.0 3.0 0.00 0.00 0.00 69 1026.6
20200220184839 41 123 0.0 3.0 0.00 0.00 0.00 68 1026.5
20200220184330 41 113 0.0 3.0 0.00 0.00 0.00 66 1026.6
20200220183827 42 107 0.0 3.0 0.00 0.00 0.00 66 1026.7
20200220183328 42 107 0.0 3.0 0.00 0.00 0.00 65 1026.9
20200220182826 42 118 0.0 3.0 0.00 0.00 0.00 65 1026.8
20200220182326 42 117 0.0 3.0 0.00 0.00 0.00 64 1026.8
20200220181826 42 118 0.0 3.0 0.00 0.00 0.00 64 1027.0
20200220181324 42 119 0.0 1.0 0.00 0.00 0.00 64 1027.0
20200220180823 42 118 0.0 2.0 0.00 0.00 0.00 65 1027.0
20200220180323 42 118 0.0 2.0 0.00 0.00 0.00 64 1027.2
20200220175823 42 146 0.0 2.0 0.00 0.00 0.00 65 1027.3
20200220175324 42 115 0.0 2.0 0.00 0.00 0.00 64 1027.3
20200220174821 42 119 0.0 0.0 0.00 0.00 0.00 65 1027.4
20200220174314 42 119 0.0 0.0 0.00 0.00 0.00 64 1027.5
20200220173806 42 134 0.0 0.0 0.00 0.00 0.00 64 1027.8
20200220173306 42 134 0.0 0.0 0.00 0.00 0.00 65 1028.1
20200220172747 42 134 0.0 0.0 0.00 0.00 0.00 64 1028.4
20200220172247 42 279 0.0 1.0 0.00 0.00 0.00 65 1028.4
20200220171744 42 115 0.0 5.0 0.00 0.00 0.00 64 1028.4
20200220171244 42 113 0.0 5.0 0.00 0.00 0.00 64 1028.7
20200220170746 42 107 0.0 0.0 0.00 0.00 0.00 65 1028.5
20200220170245 42 123 0.0 1.0 0.00 0.00 0.00 65 1028.4
20200220165735 42 115 0.0 1.0 0.00 0.00 0.00 65 1028.5
20200220165232 42 222 0.0 0.0 0.00 0.00 0.00 66 1028.6
20200220164733 42 117 0.0 0.0 0.00 0.00 0.00 66 1028.5
20200220164232 42 117 0.0 0.0 0.00 0.00 0.00 67 1028.5
20200220163732 42 117 0.0 0.0 0.00 0.00 0.00 67 1028.5
20200220163226 42 117 0.0 0.0 0.00 0.00 0.00 68 1028.7
20200220162724 42 121 0.0 3.0 0.00 0.00 0.00 67 1028.7
20200220162221 42 121 0.0 3.0 0.00 0.00 0.00 68 1028.7
20200220161721 42 128 0.0 3.0 0.00 0.00 0.00 68 1028.4
20200220161219 42 103 0.0 3.0 0.00 0.00 0.00 68 1028.4
20200220160713 42 131 0.0 1.0 0.00 0.00 0.00 68 1028.3
20200220160211 41 131 0.0 1.0 0.00 0.00 0.00 69 1028.2
20200220155710 41 135 0.0 1.0 0.00 0.00 0.00 69 1028.4
20200220155208 41 138 0.0 0.0 0.00 0.00 0.00 69 1028.5
20200220154710 41 138 0.0 0.0 0.00 0.00 0.00 70 1028.5
20200220154202 41 138 0.0 1.0 0.00 0.00 0.00 69 1028.6
20200220153658 41 138 0.0 1.0 0.00 0.00 0.00 69 1028.7
20200220153158 41 150 0.0 0.0 0.00 0.00 0.00 70 1028.8
20200220152655 41 151 0.0 0.0 0.00 0.00 0.00 70 1028.8
20200220152155 40 199 0.0 0.0 0.00 0.00 0.00 71 1028.8
20200220151644 40 205 0.0 0.0 0.00 0.00 0.00 71 1028.7
20200220151146 40 208 0.0 3.0 0.00 0.00 0.00 70 1028.7
20200220150644 40 215 0.0 3.0 0.00 0.00 0.00 71 1028.8
20200220150144 40 108 0.0 3.0 0.00 0.00 0.00 70 1029.2
20200220145643 40 107 0.0 3.0 0.00 0.00 0.00 71 1029.5
20200220145137 40 75 0.0 0.0 0.00 0.00 0.00 71 1029.3
20200220144635 40 75 0.0 0.0 0.00 0.00 0.00 70 1029.4
20200220144132 39 75 0.0 0.0 0.00 0.00 0.00 70 1029.3
20200220143630 39 75 0.0 0.0 0.00 0.00 0.00 70 1029.5
20200220143131 39 75 0.0 0.0 0.00 0.00 0.00 71 1029.5
20200220142622 39 75 0.0 0.0 0.00 0.00 0.00 70 1029.6
20200220142119 39 75 0.0 0.0 0.00 0.00 0.00 70 1029.5
20200220141619 39 75 0.0 0.0 0.00 0.00 0.00 70 1029.4
20200220141117 39 75 0.0 0.0 0.00 0.00 0.00 70 1029.1
20200220140617 39 75 0.0 0.0 0.00 0.00 0.00 70 1028.6
20200220140111 39 75 0.0 0.0 0.00 0.00 0.00 69 1028.4
20200220135609 39 75 0.0 0.0 0.00 0.00 0.00 69 1028.6
20200220135107 39 75 0.0 0.0 0.00 0.00 0.00 69 1028.9
20200220134605 38 75 0.0 0.0 0.00 0.00 0.00 69 1028.9
20200220134104 38 75 0.0 0.0 0.00 0.00 0.00 69 1028.8
20200220133604 38 75 0.0 0.0 0.00 0.00 0.00 69 1028.9
20200220133105 38 75 0.0 0.0 0.00 0.00 0.00 69 1029.0
20200220132605 38 75 0.0 0.0 0.00 0.00 0.00 69 1028.9
20200220132103 38 75 0.0 0.0 0.00 0.00 0.00 69 1028.7
20200220131601 38 75 0.0 0.0 0.00 0.00 0.00 70 1028.6
20200220131059 38 75 0.0 0.0 0.00 0.00 0.00 70 1028.5
20200220130559 38 75 0.0 0.0 0.00 0.00 0.00 70 1028.3
20200220130101 38 75 0.0 0.0 0.00 0.00 0.00 69 1028.6
20200220125601 38 75 0.0 0.0 0.00 0.00 0.00 70 1028.5
20200220125059 38 75 0.0 0.0 0.00 0.00 0.00 69 1028.4
20200220124551 38 75 0.0 0.0 0.00 0.00 0.00 70 1028.5
20200220124045 38 75 0.0 0.0 0.00 0.00 0.00 70 1028.5
20200220123545 38 58 0.0 0.0 0.00 0.00 0.00 70 1028.6
20200220123040 38 115 0.0 0.0 0.00 0.00 0.00 70 1028.6
20200220122537 38 115 0.0 0.0 0.00 0.00 0.00 70 1028.4
20200220122036 38 115 0.0 0.0 0.00 0.00 0.00 70 1028.1
20200220121533 38 115 0.0 0.0 0.00 0.00 0.00 71 1027.8
20200220121032 38 115 0.0 0.0 0.00 0.00 0.00 71 1027.9
20200220120527 38 115 0.0 0.0 0.00 0.00 0.00 71 1027.9
20200220120023 38 115 0.0 0.0 0.00 0.00 0.00 72 1028.1
20200220115521 38 115 0.0 0.0 0.00 0.00 0.00 72 1028.2
20200220115021 37 115 0.0 0.0 0.00 0.00 0.00 72 1027.8
20200220114520 37 115 0.0 0.0 0.00 0.00 0.00 72 1027.5
20200220114009 37 115 0.0 0.0 0.00 0.00 0.00 73 1027.5
20200220113510 37 115 0.0 0.0 0.00 0.00 0.00 74 1027.7
20200220113007 37 115 0.0 0.0 0.00 0.00 0.00 76 1027.7
20200220112507 37 115 0.0 0.0 0.00 0.00 0.00 77 1027.9
20200220112006 37 115 0.0 0.0 0.00 0.00 0.00 79 1027.7
20200220111501 37 115 0.0 0.0 0.00 0.00 0.00 81 1027.7
20200220110959 37 115 0.0 0.0 0.00 0.00 0.00 81 1027.6
20200220110456 37 115 0.0 0.0 0.00 0.00 0.00 83 1027.5
20200220105954 37 115 0.0 0.0 0.00 0.00 0.00 83 1027.7
20200220105454 37 115 0.0 0.0 0.00 0.00 0.00 83 1027.9
20200220104948 37 115 0.0 0.0 0.00 0.00 0.00 83 1027.8
20200220104448 37 115 0.0 0.0 0.00 0.00 0.00 83 1027.7
20200220103946 37 115 0.0 0.0 0.00 0.00 0.00 84 1027.6
20200220103448 37 115 0.0 0.0 0.00 0.00 0.00 84 1027.6
20200220102948 37 115 0.0 0.0 0.00 0.00 0.00 84 1027.5
20200220102449 36 115 0.0 0.0 0.00 0.00 0.00 84 1027.7
20200220101936 36 115 0.0 0.0 0.00 0.00 0.00 84 1027.7
20200220101435 36 115 0.0 0.0 0.00 0.00 0.00 84 1027.3
20200220100936 36 115 0.0 0.0 0.00 0.00 0.00 84 1027.6
20200220100436 36 115 0.0 0.0 0.00 0.00 0.00 84 1027.5
20200220095941 36 115 0.0 0.0 0.00 0.00 0.00 83 1027.7
20200220095434 36 115 0.0 0.0 0.00 0.00 0.00 84 1027.6
20200220094930 36 115 0.0 0.0 0.00 0.00 0.00 83 1027.5
20200220094426 36 115 0.0 0.0 0.00 0.00 0.00 83 1027.5
20200220093925 36 115 0.0 0.0 0.00 0.00 0.00 83 1027.6
20200220093430 36 115 0.0 0.0 0.00 0.00 0.00 84 1027.6
20200220092918 36 115 0.0 0.0 0.00 0.00 0.00 84 1027.3
20200220092417 36 115 0.0 0.0 0.00 0.00 0.00 84 1027.6
20200220091917 36 115 0.0 0.0 0.00 0.00 0.00 84 1027.7
20200220091412 36 115 0.0 0.0 0.00 0.00 0.00 85 1027.6
20200220090912 36 115 0.0 0.0 0.00 0.00 0.00 85 1027.7
20200220090412 36 115 0.0 0.0 0.00 0.00 0.00 85 1027.7
20200220085910 36 115 0.0 0.0 0.00 0.00 0.00 85 1027.7
20200220085402 36 115 0.0 0.0 0.00 0.00 0.00 85 1027.6
20200220084854 36 115 0.0 0.0 0.00 0.00 0.00 85 1027.8
20200220084346 36 115 0.0 0.0 0.00 0.00 0.00 84 1027.9
20200220083838 36 115 0.0 0.0 0.00 0.00 0.00 84 1027.8
20200220083330 36 115 0.0 0.0 0.00 0.00 0.00 84 1027.8
20200220082823 36 115 0.0 0.0 0.00 0.00 0.00 84 1027.8
20200220082314 36 115 0.0 0.0 0.00 0.00 0.00 84 1028.1
20200220081806 36 115 0.0 0.0 0.00 0.00 0.00 84 1027.8
20200220081258 36 115 0.0 0.0 0.00 0.00 0.00 84 1027.9
20200220080752 36 115 0.0 0.0 0.00 0.00 0.00 84 1027.8
20200220080246 36 115 0.0 0.0 0.00 0.00 0.00 84 1027.8
20200220075745 36 115 0.0 0.0 0.00 0.00 0.00 84 1027.7
20200220075246 36 115 0.0 0.0 0.00 0.00 0.00 84 1027.8
20200220074739 36 115 0.0 0.0 0.00 0.00 0.00 84 1028.2
20200220074237 36 115 0.0 0.0 0.00 0.00 0.00 83 1028.2
20200220073735 36 115 0.0 0.0 0.00 0.00 0.00 83 1028.3
20200220073233 36 115 0.0 0.0 0.00 0.00 0.00 83 1028.3
20200220072734 36 115 0.0 0.0 0.00 0.00 0.00 83 1028.4
20200220072228 36 115 0.0 0.0 0.00 0.00 0.00 83 1028.5
20200220071730 36 115 0.0 0.0 0.00 0.00 0.00 83 1028.7
20200220071223 36 115 0.0 0.0 0.00 0.00 0.00 83 1028.6
20200220070722 36 115 0.0 0.0 0.00 0.00 0.00 83 1028.7
20200220070222 36 115 0.0 0.0 0.00 0.00 0.00 83 1028.9
20200220065721 36 115 0.0 0.0 0.00 0.00 0.00 83 1029.0
20200220065218 36 115 0.0 0.0 0.00 0.00 0.00 83 1028.9
20200220064714 36 115 0.0 0.0 0.00 0.00 0.00 83 1029.0
20200220064210 36 115 0.0 0.0 0.00 0.00 0.00 84 1028.9
20200220063710 36 115 0.0 0.0 0.00 0.00 0.00 84 1028.9
20200220063210 36 115 0.0 0.0 0.00 0.00 0.00 84 1028.9
20200220062702 36 115 0.0 0.0 0.00 0.00 0.00 84 1029.0
20200220062201 36 115 0.0 0.0 0.00 0.00 0.00 84 1029.0
20200220061702 36 115 0.0 0.0 0.00 0.00 0.00 83 1028.9
20200220061200 36 115 0.0 0.0 0.00 0.00 0.00 83 1028.9
20200220060700 36 115 0.0 0.0 0.00 0.00 0.00 82 1028.9
20200220060149 36 115 0.0 0.0 0.00 0.00 0.00 82 1029.0
20200220055650 36 115 0.0 0.0 0.00 0.00 0.00 82 1029.0
20200220055151 36 115 0.0 0.0 0.00 0.00 0.00 82 1029.0
20200220054648 36 115 0.0 0.0 0.00 0.00 0.00 81 1029.0
20200220054146 36 115 0.0 0.0 0.00 0.00 0.00 82 1028.8
20200220053648 36 115 0.0 0.0 0.00 0.00 0.00 82 1028.8
20200220053149 36 115 0.0 0.0 0.00 0.00 0.00 81 1028.8
20200220052644 36 115 0.0 0.0 0.00 0.00 0.00 81 1028.8
20200220052144 36 115 0.0 0.0 0.00 0.00 0.00 81 1028.8
20200220051645 36 115 0.0 0.0 0.00 0.00 0.00 82 1028.6
20200220051146 36 115 0.0 0.0 0.00 0.00 0.00 82 1028.7
20200220050644 36 115 0.0 0.0 0.00 0.00 0.00 82 1028.7
20200220050135 36 115 0.0 0.0 0.00 0.00 0.00 82 1028.7
20200220045628 36 115 0.0 0.0 0.00 0.00 0.00 83 1028.7
20200220045120 37 115 0.0 0.0 0.00 0.00 0.00 83 1028.8
20200220044614 37 115 0.0 0.0 0.00 0.00 0.00 83 1028.9
20200220044114 37 115 0.0 0.0 0.00 0.00 0.00 83 1028.9
20200220043613 37 115 0.0 0.0 0.00 0.00 0.00 83 1029.0
20200220043111 37 115 0.0 0.0 0.00 0.00 0.00 83 1029.1
20200220042610 37 115 0.0 0.0 0.00 0.00 0.00 83 1029.0
20200220042103 37 115 0.0 0.0 0.00 0.00 0.00 83 1028.8
20200220041602 37 115 0.0 0.0 0.00 0.00 0.00 83 1028.9
20200220041100 37 115 0.0 0.0 0.00 0.00 0.00 82 1029.0
20200220040558 37 115 0.0 0.0 0.00 0.00 0.00 82 1029.0
20200220040100 37 115 0.0 0.0 0.00 0.00 0.00 81 1029.3
20200220035550 37 115 0.0 0.0 0.00 0.00 0.00 81 1029.3
20200220035050 37 115 0.0 0.0 0.00 0.00 0.00 81 1029.5
20200220034548 37 115 0.0 0.0 0.00 0.00 0.00 81 1029.4
20200220034045 37 115 0.0 0.0 0.00 0.00 0.00 81 1029.4
20200220033545 37 115 0.0 0.0 0.00 0.00 0.00 81 1029.3
20200220033034 37 115 0.0 0.0 0.00 0.00 0.00 81 1029.2
20200220032535 37 115 0.0 0.0 0.00 0.00 0.00 81 1029.2
20200220032032 37 115 0.0 0.0 0.00 0.00 0.00 81 1029.4
20200220031531 37 115 0.0 0.0 0.00 0.00 0.00 81 1029.2
20200220031031 37 115 0.0 0.0 0.00 0.00 0.00 82 1029.2
20200220030525 37 115 0.0 0.0 0.00 0.00 0.00 81 1029.3
20200220030023 37 115 0.0 0.0 0.00 0.00 0.00 81 1029.3
20200220025520 37 115 0.0 0.0 0.00 0.00 0.00 81 1029.4
20200220025019 37 115 0.0 0.0 0.00 0.00 0.00 81 1029.5
20200220024519 37 115 0.0 0.0 0.00 0.00 0.00 80 1029.5
20200220024012 37 115 0.0 0.0 0.00 0.00 0.00 79 1029.4
20200220023511 37 115 0.0 0.0 0.00 0.00 0.00 79 1029.4
20200220023010 37 115 0.0 0.0 0.00 0.00 0.00 80 1029.3
20200220022506 37 115 0.0 0.0 0.00 0.00 0.00 80 1029.1
20200220022008 38 115 0.0 0.0 0.00 0.00 0.00 81 1029.2
20200220021500 38 115 0.0 0.0 0.00 0.00 0.00 80 1029.2
20200220020959 38 115 0.0 0.0 0.00 0.00 0.00 79 1029.1
20200220020457 38 115 0.0 0.0 0.00 0.00 0.00 79 1029.1
20200220015955 38 115 0.0 0.0 0.00 0.00 0.00 79 1029.0
20200220015459 38 115 0.0 0.0 0.00 0.00 0.00 79 1028.8
20200220014949 39 115 0.0 0.0 0.00 0.00 0.00 78 1028.7
20200220014447 39 115 0.0 0.0 0.00 0.00 0.00 78 1028.7
20200220013948 39 115 0.0 0.0 0.00 0.00 0.00 78 1028.6
20200220013441 39 115 0.0 0.0 0.00 0.00 0.00 77 1028.6
20200220012944 39 115 0.0 0.0 0.00 0.00 0.00 77 1028.5
20200220012438 39 115 0.0 0.0 0.00 0.00 0.00 76 1028.6
20200220011935 39 115 0.0 0.0 0.00 0.00 0.00 76 1028.6
20200220011433 40 115 0.0 0.0 0.00 0.00 0.00 75 1028.7